N973SE ENBO-ENVA

Flight info

Callsign N973SE
Flight time 1h 18m
Altitude 22000
Route DISMU DCT NUPGO
Aircraft C414/L-SBDFGRY/S

Departure

Time 2026-04-21 18:24
Airport Bodø Airport (ENBO)

Arrival

Time 2026-04-21 19:42
Airport Trondheim Airport, Værnes (ENVA)
Time Latitude Longitude Altitude Speed Heading
2026-04-21 18:14 67.27125 14.35815 34 ft 0 kts 303°
2026-04-21 18:21 67.27126 14.35810 34 ft 2 kts 302°
2026-04-21 18:21 67.27149 14.35787 33 ft 8 kts 65°
2026-04-21 18:22 67.27116 14.35975 34 ft 15 kts 115°
2026-04-21 18:22 67.27065 14.36265 35 ft 21 kts 116°
2026-04-21 18:22 67.27061 14.36660 35 ft 26 kts 76°
2026-04-21 18:22 67.27097 14.37118 37 ft 25 kts 81°
2026-04-21 18:23 67.27124 14.37533 38 ft 22 kts 69°
2026-04-21 18:23 67.27164 14.37899 39 ft 20 kts 79°
2026-04-21 18:23 67.27159 14.38243 40 ft 18 kts 100°
2026-04-21 18:23 67.27082 14.38364 39 ft 13 kts 236°
2026-04-21 18:24 67.27028 14.37785 40 ft 58 kts 258°
2026-04-21 18:24 67.26917 14.36514 139 ft 80 kts 255°
2026-04-21 18:24 67.26828 14.35083 369 ft 93 kts 256°
2026-04-21 18:24 67.26748 14.33432 812 ft 92 kts 258°
2026-04-21 18:25 67.26690 14.31821 1357 ft 89 kts 259°
2026-04-21 18:25 67.26619 14.30233 1835 ft 89 kts 259°
2026-04-21 18:25 67.26518 14.28679 2297 ft 87 kts 260°
2026-04-21 18:25 67.26356 14.27149 2731 ft 90 kts 254°
2026-04-21 18:26 67.25825 14.26131 3133 ft 108 kts 214°
2026-04-21 18:26 67.25129 14.25414 3555 ft 108 kts 217°
2026-04-21 18:26 67.24427 14.24670 3961 ft 110 kts 217°
2026-04-21 18:26 67.23715 14.23913 4297 ft 112 kts 218°
2026-04-21 18:27 67.23002 14.23115 4625 ft 110 kts 222°
2026-04-21 18:27 67.22337 14.22148 4961 ft 110 kts 226°
2026-04-21 18:27 67.21680 14.21111 5277 ft 111 kts 227°
2026-04-21 18:27 67.21071 14.19917 5593 ft 110 kts 234°
2026-04-21 18:28 67.20539 14.18546 5913 ft 108 kts 240°
2026-04-21 18:28 67.20023 14.17112 6237 ft 110 kts 241°
2026-04-21 18:28 67.19498 14.15649 6560 ft 112 kts 241°
2026-04-21 18:28 67.18962 14.14167 6864 ft 114 kts 241°
2026-04-21 18:29 67.18421 14.12664 7165 ft 115 kts 241°
2026-04-21 18:29 67.17879 14.11103 7442 ft 118 kts 242°
2026-04-21 18:29 67.17298 14.09556 7758 ft 121 kts 238°
2026-04-21 18:29 67.16675 14.08046 8057 ft 125 kts 236°
2026-04-21 18:30 67.16023 14.06552 8370 ft 127 kts 235°
2026-04-21 18:30 67.15348 14.05054 8688 ft 129 kts 235°
2026-04-21 18:30 67.14659 14.03547 8996 ft 131 kts 234°
2026-04-21 18:30 67.13961 14.02028 9303 ft 132 kts 234°
2026-04-21 18:31 67.13253 14.00490 9613 ft 134 kts 234°
2026-04-21 18:31 67.12545 13.98956 9923 ft 136 kts 234°
2026-04-21 18:31 67.11809 13.97360 10220 ft 138 kts 234°
2026-04-21 18:31 67.11051 13.95813 10507 ft 143 kts 225°
2026-04-21 18:32 67.10063 13.94917 10781 ft 156 kts 204°
2026-04-21 18:32 67.09026 13.94257 11065 ft 155 kts 208°
2026-04-21 18:32 67.07983 13.93497 11356 ft 156 kts 208°
2026-04-21 18:32 67.06934 13.92741 11647 ft 157 kts 208°
2026-04-21 18:33 67.05877 13.91994 11938 ft 158 kts 208°
2026-04-21 18:33 67.04812 13.91248 12227 ft 159 kts 208°
2026-04-21 18:33 67.03739 13.90500 12518 ft 160 kts 208°
2026-04-21 18:33 67.02658 13.89749 12812 ft 161 kts 208°
2026-04-21 18:34 67.01571 13.88994 13107 ft 163 kts 208°
2026-04-21 18:34 67.00474 13.88233 13393 ft 164 kts 208°
2026-04-21 18:34 66.99372 13.87470 13720 ft 165 kts 207°
2026-04-21 18:34 66.98261 13.86700 14046 ft 166 kts 208°
2026-04-21 18:35 66.97523 13.86189 14251 ft 166 kts 208°
2026-04-21 18:35 66.96037 13.85184 14483 ft 166 kts 207°
2026-04-21 18:35 66.94913 13.84392 14714 ft 168 kts 207°
2026-04-21 18:35 66.93784 13.83607 14955 ft 169 kts 206°
2026-04-21 18:36 66.92641 13.82819 15216 ft 170 kts 206°
2026-04-21 18:36 66.91496 13.82033 15513 ft 170 kts 205°
2026-04-21 18:36 66.90352 13.81231 15764 ft 171 kts 207°
2026-04-21 18:36 66.89244 13.80179 16068 ft 169 kts 213°
2026-04-21 18:37 66.88150 13.79022 16329 ft 171 kts 212°
2026-04-21 18:37 66.87066 13.77897 16654 ft 172 kts 212°
2026-04-21 18:37 66.85949 13.76738 16940 ft 173 kts 212°
2026-04-21 18:37 66.84829 13.75570 17235 ft 174 kts 211°
2026-04-21 18:38 66.83704 13.74401 17503 ft 175 kts 211°
2026-04-21 18:38 66.82572 13.73227 17774 ft 176 kts 211°
2026-04-21 18:38 66.81434 13.72047 18046 ft 177 kts 210°
2026-04-21 18:38 66.80291 13.70862 18331 ft 178 kts 210°
2026-04-21 18:39 66.79141 13.69669 18619 ft 179 kts 210°
2026-04-21 18:39 66.77987 13.68475 18864 ft 180 kts 209°
2026-04-21 18:39 66.76821 13.67271 19083 ft 182 kts 209°
2026-04-21 18:39 66.75646 13.66060 19311 ft 183 kts 209°
2026-04-21 18:40 66.74460 13.64835 19546 ft 185 kts 208°
2026-04-21 18:40 66.73266 13.63603 19804 ft 187 kts 208°
2026-04-21 18:40 66.72467 13.62780 19960 ft 187 kts 208°
2026-04-21 18:40 66.70849 13.61118 20257 ft 189 kts 207°
2026-04-21 18:41 66.69619 13.59875 20477 ft 192 kts 203°
2026-04-21 18:41 66.68287 13.59374 20735 ft 197 kts 176°
2026-04-21 18:41 66.66979 13.60150 20963 ft 196 kts 151°
2026-04-21 18:41 66.65862 13.62001 21186 ft 190 kts 131°
2026-04-21 18:42 66.64888 13.64266 21422 ft 190 kts 129°
2026-04-21 18:42 66.63916 13.66533 21639 ft 190 kts 128°
2026-04-21 18:42 66.62947 13.68809 21885 ft 191 kts 128°
2026-04-21 18:42 66.61971 13.71090 22030 ft 192 kts 129°
2026-04-21 18:43 66.60986 13.73386 22025 ft 193 kts 128°
2026-04-21 18:43 66.60009 13.75682 22286 ft 192 kts 128°
2026-04-21 18:43 66.58993 13.78047 22345 ft 206 kts 128°
2026-04-21 18:43 66.57905 13.80576 22353 ft 219 kts 129°
2026-04-21 18:44 66.56755 13.83235 22343 ft 228 kts 129°
2026-04-21 18:44 66.55568 13.85966 22354 ft 235 kts 131°
2026-04-21 18:44 66.54182 13.88302 22357 ft 248 kts 152°
2026-04-21 18:44 66.52469 13.89300 22359 ft 258 kts 177°
2026-04-21 18:45 66.50708 13.88607 22333 ft 257 kts 202°
2026-04-21 18:45 66.49044 13.86901 22340 ft 259 kts 205°
2026-04-21 18:45 66.47364 13.85188 22345 ft 262 kts 205°
2026-04-21 18:45 66.45667 13.83471 22354 ft 264 kts 205°
2026-04-21 18:46 66.43961 13.81743 22349 ft 265 kts 205°
2026-04-21 18:46 66.42242 13.79999 22349 ft 266 kts 205°
2026-04-21 18:46 66.40525 13.78253 22362 ft 267 kts 205°
2026-04-21 18:46 66.38822 13.76527 22357 ft 268 kts 205°
2026-04-21 18:47 66.37087 13.74771 22361 ft 269 kts 205°
2026-04-21 18:47 66.35348 13.73014 22351 ft 270 kts 205°
2026-04-21 18:47 66.33614 13.71266 22353 ft 269 kts 204°
2026-04-21 18:47 66.31881 13.69522 22363 ft 269 kts 204°
2026-04-21 18:48 66.30151 13.67783 22356 ft 268 kts 204°
2026-04-21 18:48 66.28422 13.66048 22372 ft 268 kts 204°
2026-04-21 18:48 66.26692 13.64315 22369 ft 268 kts 204°
2026-04-21 18:48 66.24961 13.62580 22363 ft 268 kts 204°
2026-04-21 18:49 66.23231 13.60851 22368 ft 268 kts 204°
2026-04-21 18:49 66.21501 13.59127 22374 ft 268 kts 204°
2026-04-21 18:49 66.20332 13.57962 22376 ft 267 kts 204°
2026-04-21 18:49 66.18045 13.55687 22380 ft 268 kts 204°
2026-04-21 18:50 66.16317 13.53971 22370 ft 267 kts 204°
2026-04-21 18:50 66.14596 13.52264 22385 ft 267 kts 204°
2026-04-21 18:50 66.12871 13.50555 22379 ft 266 kts 204°
2026-04-21 18:50 66.11152 13.48854 22384 ft 266 kts 204°
2026-04-21 18:51 66.09442 13.47163 22386 ft 265 kts 204°
2026-04-21 18:51 66.07725 13.45471 22392 ft 265 kts 204°
2026-04-21 18:51 66.06011 13.43785 22393 ft 265 kts 204°
2026-04-21 18:51 66.04300 13.42102 22397 ft 266 kts 204°
2026-04-21 18:52 66.02577 13.40411 22394 ft 267 kts 204°
2026-04-21 18:52 66.00854 13.38723 22389 ft 266 kts 204°
2026-04-21 18:52 65.99140 13.37044 22390 ft 265 kts 204°
2026-04-21 18:52 65.97432 13.35373 22404 ft 265 kts 204°
2026-04-21 18:53 65.95720 13.33701 22400 ft 265 kts 204°
2026-04-21 18:53 65.94011 13.32036 22392 ft 263 kts 204°
2026-04-21 18:53 65.92306 13.30377 22393 ft 263 kts 204°
2026-04-21 18:53 65.90607 13.28728 22398 ft 263 kts 204°
2026-04-21 18:54 65.88903 13.27074 22405 ft 263 kts 204°
2026-04-21 18:54 65.87198 13.25420 22397 ft 264 kts 204°
2026-04-21 18:54 65.85491 13.23768 22401 ft 264 kts 204°
2026-04-21 18:54 65.83786 13.22121 22400 ft 264 kts 204°
2026-04-21 18:55 65.82657 13.21031 22393 ft 263 kts 204°
2026-04-21 18:55 65.80378 13.18833 22400 ft 263 kts 204°
2026-04-21 18:55 65.78675 13.17193 22401 ft 263 kts 204°
2026-04-21 18:55 65.76997 13.15582 22396 ft 263 kts 204°
2026-04-21 18:56 65.75274 13.13929 22393 ft 263 kts 204°
2026-04-21 18:56 65.73575 13.12304 22402 ft 262 kts 204°
2026-04-21 18:56 65.71896 13.10698 22393 ft 262 kts 204°
2026-04-21 18:56 65.70199 13.09075 22404 ft 261 kts 204°
2026-04-21 18:57 65.68507 13.07458 22403 ft 262 kts 204°
2026-04-21 18:57 65.66813 13.05845 22397 ft 261 kts 204°
2026-04-21 18:57 65.65122 13.04237 22405 ft 261 kts 204°
2026-04-21 18:57 65.63435 13.02634 22405 ft 261 kts 204°
2026-04-21 18:58 65.61742 13.01030 22406 ft 260 kts 203°
2026-04-21 18:58 65.60054 12.99432 22407 ft 260 kts 203°
2026-04-21 18:58 65.58371 12.97838 22400 ft 260 kts 203°
2026-04-21 18:58 65.56694 12.96253 22412 ft 259 kts 203°
2026-04-21 18:59 65.55015 12.94668 22416 ft 259 kts 203°
2026-04-21 18:59 65.53333 12.93083 22408 ft 259 kts 203°
2026-04-21 18:59 65.51658 12.91507 22410 ft 258 kts 203°
2026-04-21 18:59 65.49986 12.89936 22427 ft 258 kts 203°
2026-04-21 19:00 65.48877 12.88895 22426 ft 258 kts 203°
2026-04-21 19:00 65.47184 12.87310 22424 ft 258 kts 203°
2026-04-21 19:00 65.45550 12.85780 22427 ft 257 kts 203°
2026-04-21 19:00 65.43882 12.84222 22432 ft 257 kts 203°
2026-04-21 19:01 65.42210 12.82660 22429 ft 257 kts 203°
2026-04-21 19:01 65.40541 12.81103 22430 ft 257 kts 203°
2026-04-21 19:01 65.38870 12.79545 22430 ft 258 kts 203°
2026-04-21 19:01 65.37194 12.77990 22432 ft 258 kts 203°
2026-04-21 19:02 65.35522 12.76439 22431 ft 258 kts 202°
2026-04-21 19:02 65.33848 12.74887 22429 ft 258 kts 202°
2026-04-21 19:02 65.32177 12.73340 22433 ft 258 kts 202°
2026-04-21 19:02 65.30505 12.71792 22431 ft 257 kts 202°
2026-04-21 19:03 65.28834 12.70248 22440 ft 258 kts 202°
2026-04-21 19:03 65.27157 12.68703 22438 ft 258 kts 202°
2026-04-21 19:03 65.25483 12.67161 22433 ft 258 kts 202°
2026-04-21 19:03 65.23809 12.65621 22436 ft 258 kts 202°
2026-04-21 19:04 65.22132 12.64081 22437 ft 258 kts 202°
2026-04-21 19:04 65.20457 12.62546 22435 ft 258 kts 202°
2026-04-21 19:04 65.18782 12.61011 22441 ft 258 kts 202°
2026-04-21 19:04 65.17107 12.59479 22435 ft 258 kts 202°
2026-04-21 19:05 65.15430 12.57949 22443 ft 257 kts 202°
2026-04-21 19:05 65.13758 12.56423 22444 ft 257 kts 202°
2026-04-21 19:05 65.12106 12.54919 22445 ft 257 kts 202°
2026-04-21 19:05 65.10431 12.53396 22453 ft 258 kts 202°
2026-04-21 19:06 65.08759 12.51875 22441 ft 257 kts 202°
2026-04-21 19:06 65.07084 12.50355 22379 ft 260 kts 202°
2026-04-21 19:06 65.05385 12.48816 22246 ft 264 kts 202°
2026-04-21 19:06 65.03659 12.47251 22119 ft 267 kts 202°
2026-04-21 19:07 65.01918 12.45675 21982 ft 269 kts 202°
2026-04-21 19:07 65.00168 12.44095 21857 ft 270 kts 202°
2026-04-21 19:07 64.98407 12.42507 21724 ft 271 kts 202°
2026-04-21 19:07 64.96649 12.40924 21588 ft 271 kts 202°
2026-04-21 19:08 64.94890 12.39345 21464 ft 270 kts 202°
2026-04-21 19:08 64.93133 12.37768 21327 ft 270 kts 202°
2026-04-21 19:08 64.91377 12.36197 21209 ft 270 kts 202°
2026-04-21 19:08 64.89625 12.34633 21091 ft 269 kts 202°
2026-04-21 19:09 64.87871 12.33064 20950 ft 269 kts 202°
2026-04-21 19:09 64.86123 12.31507 20826 ft 269 kts 203°
2026-04-21 19:09 64.84374 12.29947 20704 ft 268 kts 203°
2026-04-21 19:09 64.82631 12.28396 20577 ft 268 kts 203°
2026-04-21 19:10 64.80885 12.26844 20450 ft 267 kts 203°
2026-04-21 19:10 64.79149 12.25304 20329 ft 266 kts 203°
2026-04-21 19:10 64.77417 12.23769 20211 ft 266 kts 203°
2026-04-21 19:10 64.75688 12.22240 20082 ft 265 kts 203°
2026-04-21 19:11 64.73956 12.20708 19961 ft 265 kts 203°
2026-04-21 19:11 64.72234 12.19189 19838 ft 264 kts 203°
2026-04-21 19:11 64.70513 12.17673 19717 ft 264 kts 203°
2026-04-21 19:11 64.68820 12.16186 19595 ft 262 kts 203°
2026-04-21 19:12 64.67118 12.14689 19471 ft 261 kts 203°
2026-04-21 19:12 64.65403 12.13184 19349 ft 260 kts 203°
2026-04-21 19:12 64.63712 12.11703 19230 ft 259 kts 203°
2026-04-21 19:12 64.62025 12.10226 19115 ft 259 kts 203°
2026-04-21 19:13 64.60344 12.08756 18994 ft 258 kts 203°
2026-04-21 19:13 64.58660 12.07287 18879 ft 258 kts 203°
2026-04-21 19:13 64.56979 12.05821 18753 ft 258 kts 203°
2026-04-21 19:13 64.55303 12.04363 18623 ft 257 kts 203°
2026-04-21 19:14 64.53627 12.02904 18487 ft 257 kts 203°
2026-04-21 19:14 64.51955 12.01452 18348 ft 256 kts 203°
2026-04-21 19:14 64.50288 12.00008 18216 ft 256 kts 203°
2026-04-21 19:14 64.48623 11.98565 18079 ft 255 kts 203°
2026-04-21 19:15 64.46957 11.97124 17946 ft 255 kts 203°
2026-04-21 19:15 64.45316 11.95707 17815 ft 255 kts 203°
2026-04-21 19:15 64.43658 11.94275 17685 ft 254 kts 203°
2026-04-21 19:15 64.42002 11.92850 17550 ft 254 kts 203°
2026-04-21 19:16 64.40346 11.91426 17432 ft 253 kts 203°
2026-04-21 19:16 64.38699 11.90011 17334 ft 252 kts 203°
2026-04-21 19:16 64.37062 11.88605 17229 ft 251 kts 203°
2026-04-21 19:16 64.35423 11.87202 17125 ft 251 kts 203°
2026-04-21 19:17 64.32157 11.84406 16918 ft 250 kts 203°
2026-04-21 19:17 64.30529 11.83016 16812 ft 249 kts 203°
2026-04-21 19:17 64.28909 11.81634 16709 ft 248 kts 202°
2026-04-21 19:18 64.27286 11.80252 16604 ft 248 kts 202°
2026-04-21 19:18 64.25669 11.78875 16504 ft 248 kts 202°
2026-04-21 19:18 64.24054 11.77503 16404 ft 247 kts 202°
2026-04-21 19:18 64.22439 11.76134 16303 ft 247 kts 202°
2026-04-21 19:19 64.20827 11.74767 16201 ft 247 kts 202°
2026-04-21 19:19 64.19219 11.73406 16092 ft 246 kts 202°
2026-04-21 19:19 64.17613 11.72048 15989 ft 245 kts 202°
2026-04-21 19:19 64.16096 11.70773 15893 ft 230 kts 202°
2026-04-21 19:20 64.14571 11.69488 15792 ft 235 kts 202°
2026-04-21 19:20 64.13024 11.68181 15696 ft 238 kts 202°
2026-04-21 19:20 64.11468 11.66830 15598 ft 240 kts 204°
2026-04-21 19:20 64.09908 11.65425 15509 ft 241 kts 204°
2026-04-21 19:21 64.08366 11.64039 15549 ft 236 kts 204°
2026-04-21 19:21 64.06844 11.62674 15566 ft 234 kts 204°
2026-04-21 19:21 64.05310 11.61303 15575 ft 233 kts 203°
2026-04-21 19:21 64.03788 11.59945 15477 ft 237 kts 203°
2026-04-21 19:22 64.02237 11.58565 15351 ft 240 kts 203°
2026-04-21 19:22 64.00673 11.57176 15230 ft 242 kts 203°
2026-04-21 19:22 63.99100 11.55784 15110 ft 242 kts 203°
2026-04-21 19:22 63.97557 11.54420 14987 ft 240 kts 203°
2026-04-21 19:23 63.96002 11.53048 14866 ft 239 kts 203°
2026-04-21 19:23 63.94457 11.51683 14752 ft 238 kts 203°
2026-04-21 19:23 63.92914 11.50324 14621 ft 237 kts 203°
2026-04-21 19:23 63.91378 11.48973 14508 ft 237 kts 203°
2026-04-21 19:24 63.89841 11.47621 14384 ft 236 kts 202°
2026-04-21 19:24 63.88309 11.46275 14264 ft 236 kts 202°
2026-04-21 19:24 63.86779 11.44932 14130 ft 236 kts 202°
2026-04-21 19:24 63.85252 11.43594 13994 ft 235 kts 202°
2026-04-21 19:25 63.83705 11.42240 13853 ft 235 kts 202°
2026-04-21 19:25 63.82183 11.40912 13728 ft 234 kts 203°
2026-04-21 19:25 63.80664 11.39584 13591 ft 234 kts 203°
2026-04-21 19:25 63.79145 11.38259 13457 ft 233 kts 203°
2026-04-21 19:26 63.77630 11.36943 13327 ft 233 kts 202°
2026-04-21 19:26 63.76040 11.36256 13194 ft 235 kts 180°
2026-04-21 19:26 63.74452 11.37022 13063 ft 234 kts 158°
2026-04-21 19:26 63.72931 11.38348 12936 ft 235 kts 160°
2026-04-21 19:27 63.71393 11.39594 12806 ft 234 kts 157°
2026-04-21 19:27 63.70039 11.41574 12665 ft 233 kts 134°
2026-04-21 19:27 63.69132 11.44497 12545 ft 224 kts 111°
2026-04-21 19:27 63.68749 11.47816 12419 ft 217 kts 91°
2026-04-21 19:28 63.68845 11.51147 12295 ft 211 kts 78°
2026-04-21 19:28 63.69039 11.54430 12167 ft 211 kts 79°
2026-04-21 19:28 63.69127 11.57723 12036 ft 212 kts 90°
2026-04-21 19:28 63.68821 11.60997 11913 ft 215 kts 105°
2026-04-21 19:29 63.68356 11.64197 11787 ft 215 kts 104°
2026-04-21 19:29 63.67905 11.67368 11630 ft 216 kts 104°
2026-04-21 19:29 63.67443 11.70622 11407 ft 219 kts 104°
2026-04-21 19:29 63.66833 11.73793 11183 ft 224 kts 120°
2026-04-21 19:30 63.65801 11.76436 10968 ft 226 kts 133°
2026-04-21 19:30 63.64709 11.79006 10744 ft 227 kts 131°
2026-04-21 19:30 63.63643 11.81622 10533 ft 227 kts 130°
2026-04-21 19:30 63.62561 11.84223 10302 ft 227 kts 134°
2026-04-21 19:31 63.61239 11.86160 10057 ft 229 kts 158°
2026-04-21 19:31 63.59747 11.87412 9813 ft 228 kts 161°
2026-04-21 19:31 63.58194 11.87976 9577 ft 226 kts 185°
2026-04-21 19:31 63.56700 11.87070 9333 ft 221 kts 211°
2026-04-21 19:32 63.55532 11.85001 9049 ft 211 kts 235°
2026-04-21 19:32 63.54823 11.82210 8740 ft 203 kts 257°
2026-04-21 19:32 63.54556 11.79161 8430 ft 198 kts 266°
2026-04-21 19:32 63.54333 11.76125 8113 ft 197 kts 266°
2026-04-21 19:33 63.54178 11.74127 7914 ft 196 kts 266°
2026-04-21 19:33 63.53871 11.70147 7508 ft 192 kts 266°
2026-04-21 19:33 63.53649 11.67201 7215 ft 191 kts 266°
2026-04-21 19:33 63.53427 11.64275 6918 ft 190 kts 266°
2026-04-21 19:34 63.53208 11.61371 6614 ft 188 kts 266°
2026-04-21 19:34 63.52987 11.58471 6301 ft 188 kts 264°
2026-04-21 19:34 63.52515 11.55705 5983 ft 195 kts 241°
2026-04-21 19:34 63.51509 11.53682 5674 ft 203 kts 212°
2026-04-21 19:35 63.50148 11.52624 5372 ft 204 kts 204°
2026-04-21 19:35 63.47560 11.50366 4783 ft 195 kts 208°
2026-04-21 19:35 63.46476 11.48763 4669 ft 181 kts 231°
2026-04-21 19:36 63.45806 11.46491 4579 ft 172 kts 252°
2026-04-21 19:36 63.45651 11.43916 4494 ft 166 kts 271°
2026-04-21 19:36 63.45634 11.41338 4381 ft 165 kts 273°
2026-04-21 19:36 63.45652 11.38773 4273 ft 165 kts 274°
2026-04-21 19:37 63.45680 11.36210 4177 ft 165 kts 274°
2026-04-21 19:37 63.45701 11.33635 4082 ft 164 kts 273°
2026-04-21 19:37 63.45708 11.31959 4013 ft 163 kts 272°
2026-04-21 19:37 63.45702 11.29400 3738 ft 162 kts 272°
2026-04-21 19:38 63.45688 11.26928 3446 ft 157 kts 272°
2026-04-21 19:38 63.45689 11.24553 3263 ft 147 kts 273°
2026-04-21 19:38 63.45705 11.22272 3075 ft 148 kts 273°
2026-04-21 19:38 63.45718 11.19899 2750 ft 156 kts 272°
2026-04-21 19:39 63.45718 11.17477 2483 ft 153 kts 272°
2026-04-21 19:39 63.45718 11.15139 2323 ft 150 kts 272°
2026-04-21 19:39 63.45730 11.12816 2044 ft 154 kts 272°
2026-04-21 19:39 63.45728 11.10516 1752 ft 138 kts 272°
2026-04-21 19:40 63.45729 11.08467 1585 ft 128 kts 272°
2026-04-21 19:40 63.45737 11.06498 1368 ft 126 kts 271°
2026-04-21 19:40 63.45741 11.04571 1139 ft 119 kts 271°
2026-04-21 19:40 63.45744 11.02860 983 ft 103 kts 272°
2026-04-21 19:41 63.45748 11.01303 823 ft 99 kts 271°
2026-04-21 19:41 63.45750 10.99789 666 ft 95 kts 271°
2026-04-21 19:41 63.45750 10.98325 545 ft 93 kts 271°
2026-04-21 19:41 63.45741 10.96877 406 ft 93 kts 272°
2026-04-21 19:42 63.45739 10.95428 231 ft 95 kts 271°
2026-04-21 19:42 63.45750 10.93965 88 ft 92 kts 271°
2026-04-21 19:42 63.45756 10.92705 40 ft 69 kts 266°
2026-04-21 19:42 63.45761 10.92000 34 ft 34 kts 268°
2026-04-21 19:43 63.45750 10.91591 32 ft 17 kts 244°
2026-04-21 19:43 63.45655 10.91521 33 ft 9 kts 180°
2026-04-21 19:43 63.45652 10.91521 33 ft 0 kts 180°
2026-04-21 19:45 63.45628 10.91522 33 ft 6 kts 174°
2026-04-21 19:45 63.45597 10.91623 33 ft 13 kts 94°
2026-04-21 19:45 63.45597 10.91888 34 ft 20 kts 91°
2026-04-21 19:45 63.45596 10.92180 35 ft 17 kts 89°
2026-04-21 19:46 63.45568 10.92405 37 ft 14 kts 149°
2026-04-21 19:46 63.45480 10.92422 37 ft 12 kts 179°
2026-04-21 19:46 63.45397 10.92426 37 ft 13 kts 179°
2026-04-21 19:46 63.45300 10.92425 36 ft 13 kts 180°
2026-04-21 19:47 63.45216 10.92423 36 ft 11 kts 180°
2026-04-21 19:47 63.45185 10.92459 36 ft 0 kts